Location: Leuk
(46.3174°N, 7.6341°E)
Time: 20:15:38
(UTC+00:00)

Cosmos 2360 Rocket - Pass Details

Date: 09 March 2021
Orbit: 833 x 846 km, 71.0° (Epoch: 21 April)

Event Time Altitude Azimuth Distance (km) Brightness Sun altitude
Rises 03:52:45 0° 326° (NW) 3,416 5.2 -21.5°
Enters shadow 03:53:55 - 323° (NW) 2,998 4.9 -21.3°
Exits shadow 04:04:33 14° 198° (SSW) 2,184 4.0 -19.5°
Drops below altitude 10° 04:05:24 10° 193° (SSW) 2,459 4.3 -19.4°
Sets 04:08:02 0° 184° (S) 3,388 5.2 -19.0°
